Wind_Speed
21 21 21 22 23 24 25 28 28 30 30 29 28 30 31 32 33 34 34 34 35 35 35 36 35 35 35 34 33 32 33 32 32 33 32 32 32 31 31 31 31 30 30
21 21 21 23 24 24 26 27 28 29 30 31 30 31 31 32 33 34 35 35 35 36 36 37 37 37 36 36 35 34 34 34 34 33 33 34 34 33 32 32 31 30 30
21 21 22 23 24 24 25 27 29 29 30 30 30 32 32 33 35 36 36 36 37 37 37 38 39 38 38 37 37 36 35 35 35 35 35 35 35 34 33 33 32 31 30
22 22 23 23 25 25 26 27 28 30 31 30 30 31 32 33 33 34 35 36 38 39 39 40 38 38 38 38 37 37 36 36 36 36 35 35 35 35 34 33 33 32 32
23 23 24 24 25 26 27 26 28 30 31 31 30 30 31 32 33 33 34 36 36 38 39 40 39 38 38 38 38 37 37 38 37 37 37 37 37 36 35 34 34 34 34
23 24 25 26 27 28 28 28 29 30 31 31 31 33 33 34 35 34 35 37 38 37 38 39 40 41 40 40 40 39 38 39 39 39 38 38 37 37 36 36 36 35 35
24 25 26 27 28 29 30 30 32 33 33 34 34 34 35 35 35 35 36 37 38 39 40 41 41 42 42 41 42 41 40 40 40 40 40 39 39 39 38 37 37 36 36
28 28 28 28 29 30 31 32 33 34 35 36 36 36 36 36 36 36 37 37 38 39 39 40 41 42 43 42 42 42 42 42 42 41 42 41 41 40 39 38 37 37 37
28 28 29 29 29 30 31 33 34 34 36 37 39 39 39 38 38 39 38 38 38 39 41 41 41 41 43 43 42 44 44 44 43 43 43 42 43 42 41 40 40 40 39
30 29 29 31 31 32 33 34 35 35 36 37 38 40 40 40 40 40 40 40 39 40 41 42 43 43 43 44 44 44 45 44 44 44 43 43 43 43 44 44 44 43 43
31 32 31 31 32 33 34 35 35 36 38 38 39 40 41 41 40 40 40 41 42 41 41 42 44 44 44 45 45 45 45 45 45 44 44 44 45 46 46 45 45 45 45
33 33 34 34 34 34 35 36 36 37 38 39 39 40 40 41 41 41 41 41 42 43 42 43 44 45 46 46 46 46 45 46 46 46 45 46 47 47 48 48 47 47 47
35 36 36 37 37 36 37 37 38 38 39 39 39 40 40 41 41 42 42 43 43 43 43 44 44 45 46 47 47 47 47 46 48 49 49 49 49 49 50 50 50 50 50
37 38 38 38 38 38 38 39 39 40 40 41 41 41 42 42 43 43 43 44 44 44 43 43 44 45 46 47 47 48 48 48 49 50 50 50 50 51 51 51 52 52 52
39 40 39 39 39 39 40 40 41 42 42 43 43 43 43 44 44 44 43 44 45 46 45 44 45 46 47 47 48 49 50 49 49 50 50 50 51 52 52 52 52 53 53
41 41 41 41 41 41 41 42 43 44 44 44 44 45 45 45 45 45 45 45 45 46 46 46 46 46 46 48 49 49 50 51 51 52 51 51 51 52 52 52 52 53 52
43 43 43 43 43 43 43 43 44 45 46 46 46 46 47 46 46 46 46 46 46 46 47 47 48 47 47 48 49 50 51 52 53 53 53 54 54 55 54 53 53 53 52
45 44 44 44 45 45 44 44 45 46 47 47 48 48 48 47 47 47 47 46 47 47 47 47 48 48 48 49 50 51 53 54 54 54 54 55 56 56 56 55 55 55 54
44 45 45 45 46 46 46 46 46 47 47 48 48 49 49 49 49 49 49 48 48 48 48 48 49 49 50 50 51 52 54 54 54 55 56 56 56 56 56 56 56 56 56
45 45 45 46 46 46 47 47 47 47 47 48 48 49 50 50 50 50 50 50 50 49 50 49 49 50 51 52 52 53 54 55 56 56 56 56 56 56 56 57 57 57 57
45 45 46 46 46 46 47 47 47 47 48 48 48 49 50 51 51 51 50 51 51 51 51 51 51 51 52 53 53 54 55 56 56 56 56 56 56 56 57 57 57 57 57
45 46 46 46 46 46 47 47 47 47 47 48 48 49 49 50 50 50 51 51 51 52 52 53 53 53 53 53 53 54 55 56 57 56 56 56 56 56 56 57 57 58 57
46 46 46 46 46 46 46 46 47 47 48 48 48 48 48 49 49 50 51 52 52 52 53 53 54 54 53 54 55 55 55 56 56 55 55 55 55 56 56 56 56 57 57
45 45 46 46 46 46 47 47 47 48 48 48 48 48 47 47 48 49 50 51 52 52 53 53 53 53 53 53 54 54 55 55 55 55 54 54 54 54 54 54 54 55 55
43 44 44 44 44 45 46 47 47 48 48 47 47 47 47 47 47 48 49 49 50 51 51 51 52 52 52 52 53 52 52 53 53 53 53 52 52 52 53 53 53 53 54
43 43 43 43 44 44 45 45 46 46 46 46 46 46 46 47 47 47 47 48 48 48 49 51 51 51 51 51 50 50 51 51 51 52 51 51 51 51 51 52 52 52 52
Wind_Direction
249 250 246 242 240 239 239 237 239 238 238 242 243 241 243 242 241 242 243 244 245 246 246 247 248 248 250 252 254 256 258 259 261 263 265 265 267 269 271 273 275 278 279
248 249 248 245 243 243 244 240 240 240 241 243 244 245 246 245 246 245 243 244 245 246 246 247 248 249 250 252 254 255 258 259 261 263 266 267 268 269 270 272 274 276 278
249 250 247 245 245 246 247 244 242 243 243 244 246 248 249 249 246 246 244 244 245 246 247 247 248 248 250 252 254 256 257 259 260 263 265 267 268 270 271 271 272 274 276
252 251 247 246 245 246 248 247 246 246 246 248 250 249 251 250 247 247 247 247 247 247 248 247 248 249 251 252 254 256 257 258 260 261 264 266 267 269 270 270 272 274 275
254 252 250 248 248 250 251 249 248 249 250 251 251 250 250 249 249 249 248 248 248 248 248 248 248 249 251 252 254 256 258 259 260 261 264 266 267 268 269 269 270 273 275
251 250 250 250 251 252 254 252 250 251 251 252 253 251 250 249 251 251 251 250 250 250 250 250 250 251 253 255 255 257 258 260 260 262 264 266 267 268 269 269 270 271 273
257 254 254 253 253 254 255 254 252 253 254 254 254 252 250 252 253 254 253 252 252 252 252 253 253 253 254 255 255 257 258 259 261 262 264 266 267 268 268 269 270 270 271
260 259 257 256 255 255 256 256 255 256 256 256 256 256 255 254 256 256 255 254 254 252 253 253 254 254 253 254 254 256 258 260 261 263 265 265 266 268 267 268 269 269 270
260 260 258 258 257 256 257 258 258 258 258 258 258 258 257 258 259 259 258 257 256 255 255 255 254 254 253 254 255 256 257 258 260 262 264 265 266 267 266 268 269 270 271
259 261 262 261 260 258 258 258 258 258 258 258 258 259 259 260 262 261 260 258 257 258 258 257 256 256 256 257 258 257 258 259 260 262 263 264 265 266 267 268 270 270 271
260 261 263 265 264 262 261 261 260 260 259 259 259 260 260 260 261 262 262 260 260 260 260 260 258 258 258 258 259 259 259 259 259 261 262 263 264 265 267 268 270 271 271
261 262 263 264 264 264 263 263 263 262 261 261 261 261 262 262 262 262 263 263 262 262 262 261 261 259 259 260 260 259 259 259 259 261 262 264 264 265 267 268 269 270 271
262 263 263 263 264 264 264 263 263 262 262 263 262 262 263 263 263 263 262 263 263 264 264 263 263 260 260 260 261 260 259 259 260 260 262 264 265 266 268 269 270 270 271
263 263 263 263 263 264 264 262 261 262 262 262 263 263 264 265 264 264 264 263 263 263 263 263 263 262 261 260 261 261 261 262 262 262 263 264 265 267 268 269 270 271 272
264 264 263 263 263 263 263 263 262 262 262 263 263 264 264 265 265 265 265 264 264 263 263 264 263 263 261 261 261 262 262 263 263 263 265 266 267 267 268 269 270 271 271
263 263 263 263 263 263 263 263 263 263 263 263 263 263 264 265 265 265 265 265 264 263 263 263 264 263 262 262 262 263 263 263 264 264 265 267 268 269 269 270 270 270 271
262 262 262 262 263 264 265 265 265 265 264 264 263 264 264 264 264 264 264 264 264 263 263 264 264 263 263 264 264 263 264 264 265 266 267 268 268 268 269 269 269 270 270
262 262 262 263 263 264 266 266 266 266 266 264 264 264 264 264 264 264 264 264 264 263 264 264 264 264 265 266 266 265 265 265 266 267 269 269 269 268 268 268 269 270 270
262 262 262 263 264 265 266 267 267 267 266 265 264 264 263 263 264 265 264 265 264 264 264 265 265 265 265 266 266 267 267 266 267 268 270 270 270 269 268 268 269 270 270
262 263 264 264 265 266 267 268 268 267 266 266 265 264 263 263 265 265 265 265 264 265 265 266 266 266 266 267 268 268 268 267 268 268 269 269 269 269 268 268 269 269 269
263 264 265 265 266 267 268 268 268 268 267 266 266 266 265 265 265 266 266 266 265 266 266 267 268 267 267 267 268 268 267 267 267 268 268 268 268 268 268 268 269 269 269
264 265 265 266 267 268 269 269 269 269 268 267 267 267 266 266 266 267 267 267 266 267 267 267 268 267 268 268 268 268 267 267 267 268 268 268 268 269 269 269 269 269 269
265 265 266 267 268 269 269 270 270 269 269 268 268 268 267 267 266 266 267 268 268 268 267 268 268 268 268 268 268 268 267 267 267 268 268 268 269 269 269 269 269 269 269
265 266 267 268 269 270 270 271 271 271 270 269 268 268 267 267 267 266 267 267 268 268 268 268 269 269 268 268 268 268 268 267 267 268 268 268 268 269 269 269 269 269 269
267 267 268 269 270 270 271 272 272 271 270 269 268 267 267 267 267 267 267 268 268 268 268 268 269 268 268 268 268 268 267 267 268 268 268 268 268 268 268 268 268 268 269
268 268 268 269 270 271 272 272 272 271 270 269 267 267 267 267 267 267 268 268 269 269 269 269 268 269 269 268 267 267 267 268 269 269 269 269 269 269 268 268 268 268 268
Height
5726 5727 5728 5730 5731 5734 5737 5739 5742 5744 5747 5750 5752 5755 5757 5759 5761 5763 5765 5767 5770 5772 5774 5776 5778 5780 5782 5783 5785 5786 5787 5788 5788 5789 5789 5789 5789 5789 5789 5788 5788 5787 5786
5723 5724 5724 5725 5727 5729 5731 5734 5736 5738 5741 5744 5746 5748 5750 5752 5754 5756 5758 5760 5762 5763 5765 5768 5770 5772 5774 5776 5777 5779 5780 5780 5781 5782 5782 5782 5782 5781 5781 5781 5781 5780 5779
5719 5719 5720 5722 5723 5724 5726 5729 5732 5733 5736 5738 5739 5741 5743 5745 5746 5748 5750 5752 5754 5755 5757 5759 5761 5764 5766 5768 5769 5771 5772 5773 5774 5774 5775 5775 5775 5774 5774 5774 5774 5773 5772
5714 5714 5715 5717 5718 5720 5721 5723 5726 5728 5730 5732 5733 5735 5736 5738 5739 5741 5742 5744 5746 5747 5749 5751 5752 5755 5758 5760 5761 5762 5764 5765 5766 5767 5767 5767 5768 5768 5768 5767 5767 5766 5765
5708 5709 5710 5712 5713 5715 5717 5718 5720 5722 5724 5725 5726 5727 5728 5730 5731 5733 5734 5736 5737 5739 5740 5742 5744 5747 5749 5751 5752 5754 5755 5757 5758 5758 5759 5759 5759 5759 5760 5760 5760 5759 5758
5703 5704 5705 5706 5708 5709 5711 5712 5714 5715 5717 5717 5718 5719 5721 5722 5723 5725 5726 5727 5729 5730 5732 5734 5736 5738 5740 5742 5744 5745 5746 5748 5749 5750 5750 5751 5751 5751 5751 5752 5751 5751 5750
5698 5698 5699 5700 5702 5703 5704 5705 5707 5708 5709 5710 5711 5712 5713 5714 5715 5716 5718 5719 5720 5722 5723 5725 5727 5729 5731 5732 5734 5735 5736 5738 5739 5740 5741 5742 5742 5742 5743 5743 5743 5743 5742
5691 5692 5692 5694 5694 5696 5697 5698 5699 5700 5701 5702 5703 5704 5705 5706 5707 5708 5709 5710 5711 5713 5714 5715 5717 5719 5721 5723 5724 5725 5727 5728 5729 5731 5731 5732 5733 5733 5733 5734 5734 5734 5734
5684 5685 5685 5686 5687 5687 5688 5689 5690 5691 5692 5693 5694 5695 5696 5697 5698 5699 5700 5700 5701 5703 5704 5706 5707 5709 5711 5712 5713 5715 5716 5718 5719 5721 5721 5722 5723 5723 5723 5723 5724 5724 5724
5676 5677 5678 5678 5679 5679 5680 5681 5682 5682 5683 5684 5685 5685 5686 5687 5688 5689 5690 5691 5692 5693 5694 5695 5697 5698 5700 5701 5702 5704 5705 5707 5708 5710 5711 5711 5712 5712 5712 5713 5713 5713 5713
5668 5668 5669 5669 5670 5670 5671 5671 5672 5673 5673 5674 5675 5675 5676 5677 5677 5678 5679 5680 5681 5682 5683 5684 5685 5687 5689 5690 5691 5693 5694 5696 5697 5698 5699 5700 5701 5701 5701 5701 5701 5701 5701
5658 5658 5659 5659 5660 5660 5661 5661 5662 5662 5663 5663 5664 5664 5665 5666 5667 5668 5668 5669 5670 5671 5672 5673 5674 5675 5677 5679 5680 5681 5683 5684 5686 5687 5688 5689 5689 5690 5690 5690 5690 5689 5689
5647 5648 5648 5649 5649 5650 5650 5651 5651 5651 5652 5652 5652 5653 5653 5654 5655 5656 5656 5657 5658 5659 5660 5661 5662 5663 5665 5667 5668 5669 5671 5672 5674 5675 5676 5676 5677 5677 5677 5677 5677 5677 5677
5636 5637 5637 5638 5638 5638 5638 5639 5639 5640 5640 5641 5641 5641 5641 5642 5642 5643 5644 5645 5646 5647 5648 5649 5649 5651 5652 5654 5656 5657 5658 5660 5661 5662 5663 5663 5664 5664 5664 5664 5664 5664 5663
5625 5625 5625 5626 5626 5626 5627 5627 5627 5627 5628 5628 5629 5629 5629 5630 5630 5631 5631 5632 5633 5634 5635 5636 5637 5638 5640 5641 5643 5644 5645 5647 5647 5648 5649 5650 5650 5650 5650 5650 5650 5649 5649
5612 5612 5613 5613 5613 5614 5614 5614 5614 5615 5615 5615 5616 5616 5616 5617 5617 5618 5619 5619 5620 5621 5622 5623 5624 5625 5626 5628 5629 5630 5631 5633 5633 5634 5635 5635 5636 5636 5636 5635 5635 5635 5634
5599 5600 5600 5601 5601 5601 5600 5600 5600 5600 5601 5602 5602 5603 5603 5603 5604 5604 5605 5606 5607 5608 5609 5609 5610 5611 5612 5613 5614 5615 5617 5618 5619 5619 5620 5620 5620 5620 5620 5620 5620 5620 5619
5586 5587 5587 5588 5588 5588 5587 5587 5587 5587 5587 5587 5588 5588 5589 5590 5590 5591 5592 5593 5593 5594 5595 5596 5596 5597 5598 5598 5599 5600 5601 5602 5603 5604 5604 5604 5605 5604 5604 5604 5604 5604 5604
5573 5573 5574 5574 5574 5574 5574 5573 5573 5573 5573 5573 5573 5573 5574 5575 5576 5576 5577 5578 5579 5580 5580 5581 5582 5582 5583 5583 5583 5584 5585 5586 5587 5588 5588 5588 5588 5588 5588 5588 5589 5589 5589
5559 5560 5560 5560 5560 5560 5559 5559 5559 5559 5559 5558 5558 5559 5559 5560 5561 5561 5562 5562 5563 5564 5565 5566 5566 5567 5568 5568 5568 5568 5569 5570 5571 5571 5571 5571 5571 5571 5571 5571 5572 5572 5572
5545 5545 5546 5546 5546 5546 5545 5545 5545 5544 5544 5544 5544 5544 5544 5545 5545 5546 5547 5547 5548 5549 5550 5551 5551 5552 5552 5552 5552 5552 5552 5552 5553 5554 5554 5554 5554 5554 5554 5554 5554 5555 5555
5531 5531 5531 5532 5532 5531 5531 5530 5530 5529 5529 5529 5529 5529 5530 5530 5530 5531 5531 5531 5532 5533 5533 5534 5535 5535 5535 5535 5535 5535 5534 5534 5535 5536 5537 5537 5537 5536 5537 5537 5537 5537 5537
5517 5517 5517 5517 5517 5517 5516 5516 5515 5514 5514 5514 5514 5514 5514 5515 5515 5515 5515 5516 5516 5516 5517 5518 5518 5519 5519 5519 5518 5518 5517 5517 5518 5519 5519 5520 5519 5519 5519 5519 5519 5519 5519
5503 5502 5502 5502 5502 5502 5501 5501 5500 5499 5499 5499 5499 5499 5499 5500 5500 5500 5500 5500 5500 5500 5501 5501 5501 5502 5502 5502 5501 5501 5500 5500 5500 5501 5502 5502 5503 5502 5502 5502 5502 5502 5502
5488 5488 5488 5488 5488 5487 5487 5486 5485 5485 5484 5484 5484 5484 5485 5485 5485 5485 5485 5485 5485 5484 5484 5485 5484 5485 5486 5485 5484 5484 5484 5484 5484 5485 5485 5486 5486 5486 5486 5486 5486 5486 5486
5474 5474 5474 5474 5473 5473 5472 5472 5471 5470 5470 5470 5470 5470 5470 5470 5470 5470 5470 5470 5469 5469 5468 5468 5468 5468 5468 5468 5468 5468 5468 5468 5468 5468 5469 5470 5470 5470 5470 5470 5470 5470 5470